Location: Newark
(36.7344°N, 137.0547°E)
Time: 10:59:56
(UTC+00:00)

Envisat - Visible Passes

Search period start: 14 October 2019 00:00
Search period end: 24 October 2019 00:00
Orbit: 764 x 766 km, 98.1° (Epoch: 14 October)

Date Brightness Start Highest point End Pass type
(mag) Time Alt. Az. Time Alt. Az. Time Alt. Az.
14 Oct 4.1 09:30:27 10° S 09:35:18 46° W 09:40:11 10° NNW visible
15 Oct 2.9 08:53:28 10° SSE 08:58:31 76° ENE 09:03:36 10° N visible
15 Oct 6.3 10:37:26 10° W 10:38:02 10° W 10:38:39 10° W visible
16 Oct 5.3 09:56:47 10° SSW 10:00:56 25° W 10:05:06 10° NW visible
16 Oct 6.5 20:30:14 10° ENE 20:32:39 13° E 20:35:03 10° ESE visible
17 Oct 3.6 09:19:01 10° S 09:24:00 59° W 09:29:02 10° NNW visible
18 Oct 3.0 08:42:19 10° SSE 08:47:17 59° ENE 08:52:17 10° N visible
18 Oct 6.1 10:24:08 10° WSW 10:26:39 14° W 10:29:11 10° WNW visible
19 Oct 4.8 09:45:06 10° SSW 09:49:36 32° W 09:54:09 10° NNW visible
20 Oct 3.2 09:07:41 10° S 09:12:45 77° WSW 09:17:50 10° NNW visible
21 Oct 3.3 08:31:15 10° SE 08:36:05 46° ENE 08:40:55 10° N visible
21 Oct 5.8 10:11:54 10° SW 10:15:17 18° W 10:18:41 10° NW visible
22 Oct 4.3 09:33:31 10° SSW 09:38:18 41° W 09:43:06 10° NNW visible
23 Oct 2.9 08:56:25 10° SSE 09:01:29 84° ENE 09:06:35 10° N visible
